FW5399 Weather Reports


Display with metric or nautical units.
time (UTC)temp
F
wind
direction
speed
MPH
gust
MPH
rain 1hr
in
rain 24hr
in
rain mn
in
humidity
%
barometer
mb
20260508084857 63 50 3.0 7.0 0.05 0.14 0.14 96 1011.4
20260508084350 63 153 4.0 13.0 0.05 0.14 0.14 96 1011.4
20260508083844 63 146 4.0 13.0 0.05 0.13 0.14 97 1011.5
20260508083338 63 75 3.0 11.0 0.06 0.13 0.13 97 1011.6
20260508083302 63 139 4.0 12.0 0.06 0.13 0.13 97 1011.5
20260508082327 63 101 4.0 12.0 0.06 0.12 0.12 97 1011.5
20260508082234 63 210 4.0 11.0 0.05 0.11 0.11 97 1011.5
20260508081313 63 140 4.0 10.0 0.04 0.10 0.10 97 1011.8
20260508080807 63 216 3.0 10.0 0.05 0.10 0.10 97 1011.6
20260508080301 62 118 3.0 8.0 0.04 0.09 0.09 97 1011.9
20260508075758 62 267 3.0 8.0 0.04 0.09 0.09 97 1012.0
20260508075254 62 60 3.0 8.0 0.05 0.09 0.09 97 1012.2
20260508075216 62 199 4.0 12.0 0.05 0.09 0.09 96 1012.3
20260508074246 62 71 4.0 12.0 0.04 0.09 0.09 96 1012.3
20260508073745 62 129 3.0 11.0 0.04 0.09 0.09 96 1012.5
20260508073643 62 117 2.0 9.0 0.03 0.08 0.08 96 1012.5
20260508072741 63 169 2.0 9.0 0.02 0.07 0.07 96 1012.7
20260508072242 63 165 3.0 9.0 0.02 0.06 0.06 96 1012.8
20260508072155 63 219 3.0 7.0 0.02 0.06 0.06 96 1012.9
20260508071240 63 90 3.0 8.0 0.02 0.06 0.06 95 1012.7
20260508070742 63 336 3.0 11.0 0.01 0.06 0.06 95 1012.6
20260508070237 63 157 3.0 11.0 0.01 0.06 0.06 95 1012.5
20260508065738 63 155 3.0 8.0 0.02 0.06 0.06 94 1012.6
20260508065643 63 149 4.0 10.0 0.01 0.05 0.05 93 1012.7
20260508064738 63 72 4.0 10.0 0.01 0.05 0.05 93 1012.8
20260508064236 64 158 4.0 14.0 0.01 0.05 0.05 92 1012.8
20260508063740 64 177 4.0 14.0 0.01 0.05 0.05 90 1013.0
20260508063651 64 123 4.0 14.0 0.01 0.05 0.05 90 1013.1
20260508062737 64 168 4.0 14.0 0.01 0.05 0.05 89 1013.1
20260508062237 64 198 4.0 12.0 0.01 0.05 0.05 90 1013.2
20260508062146 64 189 3.0 12.0 0.01 0.05 0.05 90 1013.2
20260508061239 64 147 2.0 11.0 0.01 0.05 0.05 91 1013.1
20260508060737 64 127 3.0 11.0 0.01 0.05 0.05 91 1013.2
20260508060633 64 176 2.0 9.0 0.01 0.05 0.05 91 1013.2
20260508055736 64 158 1.0 5.0 0.00 0.04 0.04 91 1013.3
20260508055239 64 196 2.0 5.0 0.00 0.04 0.04 91 1013.3
20260508054736 64 160 3.0 7.0 0.00 0.04 0.04 91 1013.2
20260508054237 64 333 3.0 8.0 0.00 0.04 0.04 91 1013.1
20260508053735 63 187 2.0 8.0 0.00 0.04 0.04 92 1013.4
20260508053234 63 161 3.0 8.0 0.00 0.04 0.04 93 1013.5
20260508052734 63 163 3.0 8.0 0.00 0.04 0.04 93 1013.5
20260508052234 63 151 3.0 7.0 0.00 0.04 0.04 93 1013.6
20260508051736 63 166 3.0 9.0 0.00 0.04 0.04 93 1013.5
20260508051237 63 145 3.0 9.0 0.00 0.04 0.04 93 1013.5
20260508050737 63 203 3.0 9.0 0.00 0.04 0.04 93 1013.5
20260508050235 62 176 2.0 7.0 0.00 0.04 0.04 94 1013.8
20260508045735 62 163 2.0 6.0 0.02 0.04 0.04 94 1013.8
20260508045228 62 161 2.0 6.0 0.02 0.04 0.04 94 1013.8
20260508045134 62 121 1.0 5.0 0.02 0.04 0.04 94 1013.9
20260508044216 63 52 2.0 6.0 0.02 0.04 0.04 94 1014.0
20260508043709 63 141 2.0 7.0 0.02 0.04 0.04 93 1013.9
20260508043606 63 116 2.0 7.0 0.02 0.04 0.04 93 1013.9
20260508042707 63 140 2.0 6.0 0.02 0.04 0.04 93 1013.9
20260508042552 63 166 1.0 6.0 0.02 0.04 0.04 93 1014.0
20260508041645 63 172 1.0 9.0 0.02 0.04 0.04 94 1014.0
20260508041139 63 184 1.0 9.0 0.02 0.04 0.04 93 1014.0
20260508040633 63 177 2.0 10.0 0.02 0.04 0.04 92 1014.2
20260508040136 64 170 2.0 10.0 0.01 0.02 0.03 90 1014.8
20260508035622 64 165 2.0 10.0 0.00 0.02 0.02 88 1014.8
20260508035516 65 152 4.0 10.0 0.00 0.02 0.02 87 1014.8
20260508034609 65 178 3.0 13.0 0.00 0.02 0.02 85 1014.8
20260508034510 65 173 3.0 13.0 0.00 0.02 0.02 85 1014.7
20260508033557 65 195 2.0 12.0 0.00 0.02 0.02 86 1014.7
20260508033052 65 206 2.0 9.0 0.00 0.02 0.02 87 1014.7
20260508032545 65 137 2.0 9.0 0.00 0.02 0.02 87 1014.8
20260508032039 65 130 2.0 9.0 0.00 0.02 0.02 87 1014.8
20260508031533 65 126 3.0 13.0 0.00 0.02 0.02 88 1014.6
20260508031214 65 154 3.0 13.0 0.00 0.02 0.02 87 1014.7
20260508030014 65 212 2.0 12.0 0.00 0.02 0.02 86 1014.9
20260508025509 66 110 3.0 12.0 0.00 0.02 0.02 86 1015.0
20260508025003 66 211 4.0 15.0 0.00 0.02 0.02 86 1015.0
20260508024457 66 127 4.0 15.0 0.00 0.02 0.02 85 1014.8
20260508024400 66 127 3.0 8.0 0.00 0.02 0.02 85 1015.0
20260508023445 66 197 4.0 10.0 0.00 0.02 0.02 85 1015.2
20260508022947 66 169 3.0 10.0 0.00 0.02 0.02 85 1015.4
20260508022442 66 170 3.0 10.0 0.00 0.02 0.02 86 1015.5
20260508021942 66 121 3.0 10.0 0.00 0.02 0.02 87 1015.9
20260508021844 66 193 3.0 9.0 0.00 0.02 0.02 89 1015.9
20260508020942 66 158 3.0 9.0 0.00 0.02 0.02 89 1015.9
20260508020440 66 194 3.0 7.0 0.00 0.02 0.02 89 1015.7
20260508015948 66 202 3.0 7.0 0.00 0.02 0.02 89 1015.7
20260508015834 66 170 3.0 8.0 0.00 0.02 0.02 89 1015.9
20260508014939 66 154 3.0 8.0 0.00 0.02 0.02 88 1016.0
20260508014843 66 130 3.0 8.0 0.00 0.02 0.02 88 1015.9
20260508013936 66 170 2.0 6.0 0.00 0.02 0.02 87 1015.9
20260508013435 65 166 2.0 7.0 0.00 0.02 0.02 88 1016.0
20260508012937 65 185 3.0 7.0 0.00 0.02 0.02 88 1016.1
20260508012436 65 199 3.0 9.0 0.00 0.02 0.02 88 1016.1
20260508011933 65 154 2.0 9.0 0.00 0.02 0.02 88 1016.1
20260508011835 65 189 3.0 8.0 0.00 0.02 0.02 88 1016.3
20260508010931 65 101 3.0 8.0 0.00 0.02 0.02 88 1016.4
20260508010432 65 119 3.0 9.0 0.00 0.02 0.02 89 1016.7
20260508005932 65 183 3.0 9.0 0.00 0.02 0.02 89 1016.5
20260508005425 65 170 2.0 7.0 0.00 0.02 0.02 89 1016.8
20260508004920 65 191 2.0 8.0 0.00 0.02 0.02 89 1016.9
20260508004412 65 144 3.0 9.0 0.00 0.02 0.02 89 1017.0
20260508003907 65 80 2.0 9.0 0.00 0.02 0.02 89 1017.0
20260508003402 65 154 3.0 9.0 0.00 0.02 0.02 89 1016.9
20260508002905 65 152 3.0 9.0 0.00 0.02 0.02 90 1017.0
20260508002359 65 174 3.0 9.0 0.00 0.02 0.02 91 1017.2
20260508001857 64 158 3.0 8.0 0.00 0.02 0.02 92 1017.5
20260508001806 64 142 3.0 8.0 0.00 0.02 0.02 92 1017.8
20260508000858 64 169 3.0 7.0 0.00 0.02 0.02 92 1017.8
20260508000357 64 167 2.0 7.0 0.00 0.02 0.02 91 1018.0
20260507235855 64 227 3.0 10.0 0.00 0.02 0.02 91 1018.0
20260507235353 64 175 3.0 10.0 0.00 0.02 0.02 90 1017.9
20260507235252 64 201 2.0 8.0 0.00 0.02 0.02 91 1018.0
20260507234353 64 136 3.0 8.0 0.00 0.02 0.02 92 1018.0
20260507234253 64 132 3.0 9.0 0.00 0.02 0.02 92 1018.5
20260507233352 63 148 3.0 9.0 0.00 0.02 0.02 92 1018.5
20260507233311 63 178 4.0 11.0 0.00 0.02 0.02 91 1018.6
20260507232353 64 154 3.0 11.0 0.00 0.02 0.02 88 1018.6
20260507231857 65 9 3.0 9.0 0.00 0.02 0.02 86 1018.4
20260507231357 65 150 4.0 11.0 0.00 0.02 0.02 86 1018.2
20260507230856 65 9 3.0 11.0 0.00 0.02 0.02 85 1018.2
20260507230804 65 120 2.0 7.0 0.00 0.02 0.02 85 1018.1
20260507225855 65 158 3.0 7.0 0.00 0.02 0.02 86 1018.3
20260507225355 65 158 3.0 10.0 0.00 0.02 0.02 87 1018.3
20260507224856 65 197 4.0 11.0 0.00 0.02 0.02 88 1018.4
20260507224355 65 139 4.0 11.0 0.00 0.02 0.02 88 1018.4
20260507223853 65 149 4.0 9.0 0.00 0.02 0.02 89 1018.4
20260507223354 65 338 3.0 8.0 0.00 0.02 0.02 90 1018.4
20260507222853 65 139 3.0 9.0 0.00 0.02 0.02 89 1018.3
20260507222351 65 127 3.0 9.0 0.00 0.02 0.02 90 1018.5
20260507221847 65 154 3.0 7.0 0.00 0.02 0.02 89 1018.5
20260507221347 65 142 2.0 7.0 0.00 0.02 0.02 89 1018.7
20260507220845 65 191 2.0 7.0 0.00 0.02 0.02 89 1018.7
20260507220759 65 185 3.0 9.0 0.00 0.02 0.02 89 1018.8
20260507215845 65 147 4.0 9.0 0.00 0.02 0.02 89 1018.8
20260507215345 65 189 4.0 11.0 0.00 0.02 0.02 89 1018.8
20260507214846 65 73 4.0 13.0 0.00 0.02 0.02 88 1018.7
20260507214352 66 255 4.0 13.0 0.00 0.02 0.02 87 1018.9
20260507213851 66 171 3.0 10.0 0.00 0.02 0.02 88 1018.9
20260507213345 66 153 4.0 11.0 0.00 0.02 0.02 88 1018.9
20260507212837 65 179 3.0 10.0 0.00 0.02 0.02 89 1018.8
20260507212804 65 181 2.0 8.0 0.00 0.02 0.02 90 1018.6
20260507212220 65 163 2.0 8.0 0.00 0.02 0.02 92 1018.7
20260507211319 64 184 1.0 7.0 0.00 0.02 0.02 94 1019.2
20260507210814 64 174 1.0 4.0 0.00 0.02 0.02 95 1019.4
20260507210308 63 184 1.0 5.0 0.00 0.02 0.02 96 1019.5
20260507205801 63 169 1.0 5.0 0.00 0.02 0.02 96 1019.5
20260507205258 62 22 1.0 5.0 0.00 0.02 0.02 97 1019.4
20260507204749 62 161 1.0 5.0 0.00 0.02 0.02 98 1019.5
20260507204243 62 160 1.0 3.0 0.00 0.02 0.02 98 1019.3
20260507203738 62 154 1.0 3.0 0.00 0.02 0.02 98 1019.4
20260507203232 62 184 1.0 5.0 0.00 0.02 0.02 98 1019.4
20260507202728 62 144 1.0 5.0 0.00 0.02 0.02 98 1019.2
20260507202219 62 148 1.0 5.0 0.00 0.02 0.02 98 1019.3
20260507201714 62 234 0.0 5.0 0.00 0.02 0.02 99 1019.5
20260507201207 62 186 1.0 4.0 0.00 0.02 0.02 99 1019.4
20260507200702 62 142 1.0 6.0 0.00 0.02 0.02 100 1019.5
20260507200157 61 143 2.0 6.0 0.00 0.02 0.02 100 1019.3
20260507195650 61 190 1.0 5.0 0.00 0.02 0.02 100 1019.4
20260507195144 61 166 1.0 4.0 0.00 0.02 0.02 100 1019.4
20260507194640 61 154 1.0 4.0 0.00 0.02 0.02 100 1019.4
20260507194131 61 101 1.0 4.0 0.00 0.02 0.02 100 1019.6
20260507193627 60 137 1.0 3.0 0.00 0.02 0.02 100 1019.5
20260507193119 60 144 1.0 3.0 0.00 0.02 0.02 100 1019.3
20260507193003 60 154 0.0 3.0 0.00 0.02 0.02 100 1019.3
20260507192113 60 130 0.0 2.0 0.00 0.02 0.02 100 1019.4
20260507191558 60 178 0.0 3.0 0.00 0.03 0.02 100 1019.4
20260507191050 60 122 0.0 3.0 0.00 0.03 0.02 100 1019.5
20260507190549 59 117 0.0 2.0 0.00 0.04 0.02 100 1019.6
20260507190039 58 61 0.0 1.0 0.00 0.04 0.02 100 1019.6
20260507185537 58 229 0.0 0.0 0.00 0.04 0.02 100 1019.5
20260507185028 57 229 0.0 0.0 0.00 0.04 0.02 100 1019.4
20260507184650 58 229 0.0 0.0 0.00 0.04 0.02 100 1019.6
20260507183852 58 229 0.0 0.0 0.00 0.04 0.02 100 1019.7
20260507183159 58 229 0.0 0.0 0.00 0.05 0.02 100 1019.7
20260507182007 58 229 0.0 0.0 0.00 0.05 0.02 100 1019.7
20260507181508 58 229 0.0 0.0 0.00 0.05 0.02 100 1019.7
20260507181007 58 229 0.0 0.0 0.00 0.05 0.02 100 1019.7
20260507180505 58 229 0.0 0.0 0.00 0.05 0.02 100 1019.7
20260507180140 58 229 0.0 0.0 0.00 0.05 0.02 100 1019.8
20260507175004 58 229 0.0 0.0 0.00 0.05 0.02 100 1019.7
20260507174509 58 229 0.0 0.0 0.00 0.05 0.02 100 1019.6
20260507174007 58 229 0.0 0.0 0.00 0.05 0.02 100 1019.8
20260507173505 58 229 0.0 0.0 0.00 0.05 0.02 100 1019.8
20260507173000 58 229 0.0 0.0 0.00 0.05 0.02 100 1019.8
20260507172504 58 229 0.0 0.0 0.00 0.05 0.02 100 1019.8
20260507172002 58 229 0.0 0.0 0.00 0.05 0.02 100 1019.8
20260507171501 58 229 0.0 0.0 0.00 0.05 0.02 100 1019.8
20260507171002 58 229 0.0 0.0 0.00 0.05 0.02 100 1019.8
20260507170501 58 217 0.0 0.0 0.00 0.05 0.02 100 1019.9
20260507170000 58 217 0.0 0.0 0.00 0.05 0.02 100 1019.9
20260507165500 58 217 0.0 0.0 0.00 0.05 0.02 100 1019.7
20260507165001 58 217 0.0 0.0 0.00 0.06 0.02 100 1019.8
20260507164502 58 217 0.0 0.0 0.00 0.06 0.02 100 1019.8
20260507164002 58 217 0.0 0.0 0.00 0.06 0.02 100 1019.9
20260507163502 57 217 0.0 1.0 0.00 0.06 0.02 100 1019.9
20260507163001 57 217 0.0 1.0 0.00 0.06 0.02 100 1019.9
20260507162504 57 127 0.0 0.0 0.00 0.06 0.02 100 1019.9
20260507162001 57 127 0.0 0.0 0.00 0.06 0.02 100 1019.9
20260507161500 57 127 0.0 0.0 0.00 0.06 0.02 100 1020.1
20260507161001 56 127 0.0 0.0 0.00 0.06 0.02 100 1020.0
20260507160500 56 127 0.0 0.0 0.00 0.06 0.02 100 1020.0
20260507160001 56 127 0.0 0.0 0.00 0.06 0.02 100 1020.0
20260507155459 56 127 0.0 0.0 0.00 0.06 0.02 100 1020.1
20260507155424 56 127 0.0 0.0 0.00 0.06 0.02 100 1020.1
20260507154453 56 127 0.0 0.0 0.00 0.06 0.02 100 1020.3
20260507153952 56 127 0.0 0.0 0.01 0.06 0.02 100 1020.2
20260507153449 56 127 0.0 0.0 0.01 0.06 0.02 100 1020.4
20260507152942 56 127 0.0 0.0 0.01 0.06 0.02 100 1020.4
20260507152437 56 127 0.0 0.0 0.02 0.06 0.02 100 1020.5
20260507151930 56 127 0.0 0.0 0.02 0.06 0.02 100 1020.5
20260507151425 56 127 0.0 0.0 0.02 0.06 0.02 100 1020.7
20260507150918 56 127 0.0 0.0 0.02 0.06 0.02 100 1020.7
20260507150413 56 127 0.0 0.0 0.02 0.06 0.02 100 1020.7
20260507145907 56 127 0.0 0.0 0.02 0.06 0.02 100 1020.8
20260507145400 56 127 0.0 0.0 0.02 0.06 0.02 100 1020.9
20260507144854 56 127 0.0 0.0 0.02 0.06 0.02 100 1021.1
20260507144349 56 127 0.0 0.0 0.02 0.06 0.02 100 1021.1
20260507143843 56 127 0.0 0.0 0.01 0.05 0.01 100 1021.3
20260507143725 56 127 0.0 0.0 0.01 0.05 0.01 100 1021.3
20260507142830 56 127 0.0 0.0 0.00 0.04 0.01 100 1021.2
20260507142325 56 127 0.0 0.0 0.00 0.04 0.00 100 1021.3
20260507141819 56 127 0.0 0.0 0.00 0.04 0.00 100 1021.4
20260507141312 56 127 0.0 0.0 0.00 0.04 0.00 100 1021.5
20260507140807 56 127 0.0 0.0 0.00 0.04 0.00 100 1021.6
20260507140300 56 127 0.0 0.0 0.00 0.04 0.00 100 1021.6
20260507135755 55 127 0.0 0.0 0.00 0.04 0.00 100 1021.6
20260507135253 55 127 0.0 0.0 0.00 0.04 0.00 100 1021.6
20260507134742 55 127 0.0 0.0 0.00 0.04 0.00 100 1021.6
20260507134237 55 127 0.0 0.0 0.00 0.04 0.00 100 1021.8
20260507133731 56 127 0.0 0.0 0.00 0.04 0.00 99 1021.8
20260507133224 56 127 0.0 0.0 0.00 0.04 0.00 99 1021.8
20260507132718 56 127 0.0 0.0 0.00 0.04 0.00 100 1021.7
20260507132212 56 127 0.0 0.0 0.00 0.04 0.00 100 1021.9
20260507131707 56 127 0.0 0.0 0.00 0.04 0.00 100 1021.8
20260507131200 56 127 0.0 0.0 0.00 0.04 0.00 100 1021.9
20260507130657 56 127 0.0 0.0 0.00 0.04 0.00 100 1021.9
20260507130148 56 127 0.0 0.0 0.00 0.04 0.00 100 1022.0
20260507125649 56 127 0.0 0.0 0.00 0.04 0.00 100 1022.0
20260507125143 56 127 0.0 0.0 0.00 0.04 0.00 100 1022.2
20260507124639 56 127 0.0 0.0 0.00 0.04 0.00 100 1022.3
20260507124138 56 127 0.0 0.0 0.00 0.04 0.00 100 1022.3
20260507123635 56 127 0.0 0.0 0.00 0.04 0.00 100 1022.3
20260507123134 56 127 0.0 0.0 0.00 0.04 0.00 100 1022.4
20260507122634 56 127 0.0 0.0 0.00 0.04 0.00 100 1022.5
20260507122134 56 127 0.0 0.0 0.00 0.04 0.00 100 1022.5
20260507121630 56 127 0.0 0.0 0.00 0.04 0.00 100 1022.8
20260507121133 56 127 0.0 0.0 0.00 0.04 0.00 100 1022.7
20260507120632 56 127 0.0 0.0 0.00 0.04 0.00 100 1022.7
20260507120128 56 127 0.0 0.0 0.00 0.04 0.00 100 1022.7
20260507120022 56 127 0.0 0.0 0.00 0.04 0.04 100 1022.7
20260507115132 56 127 0.0 0.0 0.00 0.04 0.04 100 1022.7
20260507114626 56 127 0.0 0.0 0.00 0.04 0.04 100 1022.8
20260507114124 56 127 0.0 0.0 0.00 0.04 0.04 100 1022.7
20260507113622 56 127 0.0 0.0 0.00 0.04 0.04 100 1022.8
20260507113123 56 127 0.0 0.0 0.00 0.04 0.04 100 1022.8
20260507112620 56 127 0.0 0.0 0.00 0.04 0.04 100 1022.9
20260507112119 56 127 0.0 0.0 0.00 0.04 0.04 100 1022.9
20260507111618 56 127 0.0 0.0 0.00 0.04 0.04 100 1022.9
20260507111113 56 127 0.0 0.0 0.00 0.04 0.04 100 1022.9
20260507110607 56 127 0.0 0.0 0.00 0.04 0.04 100 1022.9
20260507105554 56 127 0.0 0.0 0.00 0.04 0.04 99 1023.0
20260507105048 56 127 0.0 0.0 0.00 0.04 0.04 99 1023.1
20260507104542 56 127 0.0 0.0 0.00 0.04 0.04 99 1023.3
20260507104036 56 127 0.0 0.0 0.00 0.04 0.04 99 1023.3
20260507103534 56 127 0.0 0.0 0.00 0.04 0.04 99 1023.3
20260507103024 56 127 0.0 0.0 0.00 0.04 0.04 99 1023.2
20260507102519 56 127 0.0 0.0 0.00 0.04 0.04 99 1023.3
20260507102013 56 127 0.0 0.0 0.00 0.04 0.04 99 1023.2
20260507101507 56 127 0.0 0.0 0.00 0.04 0.04 99 1023.3
20260507101002 56 127 0.0 0.0 0.00 0.04 0.04 99 1023.2
20260507100453 56 127 0.0 0.0 0.00 0.04 0.04 99 1023.2
20260507095948 56 127 0.0 0.0 0.00 0.04 0.04 99 1023.4
20260507095443 56 127 0.0 0.0 0.00 0.04 0.04 99 1023.5
20260507094937 55 127 0.0 0.0 0.00 0.04 0.04 99 1023.5
20260507094431 55 127 0.0 0.0 0.00 0.04 0.04 99 1023.6
20260507093924 55 127 0.0 0.0 0.00 0.04 0.04 99 1023.6
20260507093811 55 127 0.0 0.0 0.00 0.04 0.04 99 1023.6
20260507092913 55 127 0.0 0.0 0.00 0.04 0.04 99 1023.6
20260507092409 55 127 0.0 0.0 0.00 0.04 0.04 99 1023.6
20260507092402 55 127 0.0 0.0 0.00 0.04 0.04 99 1023.6
20260507091355 55 127 0.0 0.0 0.00 0.04 0.04 99 1023.6
20260507091241 54 127 0.0 0.0 0.00 0.04 0.04 99 1023.6
20260507090342 54 127 0.0 0.0 0.00 0.04 0.04 99 1023.5
20260507085836 54 127 0.0 0.0 0.00 0.04 0.04 99 1023.5
20260507085332 53 127 0.0 0.0 0.00 0.04 0.04 99 1023.5